[[{"header":{"parameterUnit":"m.s-1","parameterCategory":1,"la1":30.2991,"la2":30.254,"lo1":-89.0895,"lo2":-89.0444,"dy":0.0017,"dx":0.0017,"nx":28,"ny":28,"refTime":"2025-01-14T03:00:00:Z","depth":0,"parameterNumber":2,"parameterNumberName":"U-component_of_WINDS"},"data":[0,0,0,0,0,0,0,0,0,0,0,0,0,0,0,0,0,0,0,0,0,0,0,0,0,0,0,0,0,0,0,0,0,0,0,0,0,0,0,0,0,0,0,0,0,0,0,0,0,0,0,0,0,0,0,0,0,0,-0.4289,-0.429,0,-0.4357,-0.4358,-0.4358,-0.4353,-0.4352,-0.4351,-0.435,-0.4425,-0.4427,-0.443,0,0,0,0,0,0,0,0,0,0,0,0,0,-0.4159,-0.4161,-0.4289,-0.429,-0.4291,-0.4357,-0.4358,-0.4359,-0.4354,-0.4352,-0.4351,-0.435,-0.4424,-0.4427,-0.4431,0,0,0,0,0,0,0,0,0,0,0,0,0,-0.422,-0.4162,-0.4289,-0.4296,-0.4297,-0.4356,-0.4358,-0.4359,-0.4354,-0.4352,-0.4351,-0.4349,-0.4422,-0.4427,-0.4431,-0.4489,0,0,-0.4444,-0.4446,0,0,0,0,0,0,0,0,-0.4217,-0.4225,-0.4294,-0.4296,-0.4297,-0.4345,-0.4339,-0.4403,-0.4354,-0.4333,-0.435,-0.4349,-0.44,-0.4406,-0.4422,-0.4492,-0.4495,-0.4445,-0.4447,-0.4449,-0.4451,0,0,0,0,0,0,0,-0.4212,-0.4222,-0.4316,-0.4295,-0.4297,-0.4297,-0.4304,-0.4351,-0.4374,-0.4334,-0.4334,-0.4342,-0.44,-0.4418,-0.4424,-0.4496,-0.4445,-0.4449,-0.4451,-0.4453,-0.4618,-0.4619,0,0,0,0,0,0,-0.4206,-0.4218,-0.4314,-0.4318,-0.4252,-0.4301,-0.4308,-0.4331,-0.4373,-0.4378,-0.4343,-0.4341,-0.4411,-0.4419,-0.4426,-0.4497,-0.4449,-0.4453,-0.4456,-0.4616,-0.4618,-0.462,0,0,0,0,0,0,-0.4203,-0.4214,-0.4311,-0.4268,-0.428,-0.4304,-0.433,-0.4333,-0.4351,-0.438,-0.4385,-0.4357,-0.441,-0.442,-0.4473,-0.45,-0.4455,-0.4459,-0.4614,-0.4617,-0.4619,-0.4639,0,0,0,0,0,0,-0.4199,-0.4214,-0.4235,-0.4269,-0.4283,-0.4356,-0.4332,-0.4336,-0.4358,-0.4356,-0.4394,-0.4399,-0.441,-0.4466,-0.4477,-0.4505,-0.4463,-0.4612,-0.4615,-0.4618,-0.4636,-0.4642,-0.4647,0,0,0,0,0,-0.4195,-0.4239,-0.4236,-0.4248,-0.431,-0.4357,-0.4365,-0.4376,-0.436,-0.4383,-0.4401,-0.4398,-0.4494,-0.4472,-0.4484,-0.4513,-0.461,-0.4614,-0.4618,-0.4634,-0.4641,-0.4647,0,0,0,0,0,0,-0.421,-0.4244,-0.4241,-0.4297,-0.4324,-0.4356,-0.4385,-0.4383,-0.4416,-0.4414,-0.4426,-0.4435,-0.4488,-0.4506,-0.448,-0.4571,-0.455,-0.4557,-0.4558,-0.4565,-0.4571,-0.4566,-0.4466,0,0,0,0,0,-0.4219,-0.4254,-0.4282,-0.4329,-0.4342,-0.4361,-0.4382,-0.4387,-0.4417,-0.4429,-0.4451,-0.4481,-0.4518,-0.4542,-0.4578,-0.4638,-0.4647,-0.4664,-0.4669,-0.4674,-0.468,-0.4714,-0.4722,-0.4633,-0.4633,-0.4633,0,0,-0.424,-0.4263,-0.4284,-0.4332,-0.4354,-0.439,-0.4371,-0.441,-0.4438,-0.4435,-0.4486,-0.4503,-0.4537,-0.4594,-0.462,-0.4611,-0.4706,-0.4679,-0.4682,-0.4686,-0.4718,-0.4727,-0.4734,-0.4635,-0.4635,-0.4634,0,0,-0.4297,-0.4317,-0.4358,-0.438,-0.4412,-0.4424,-0.4434,-0.4466,-0.4477,-0.4528,-0.4526,-0.456,-0.4623,-0.4647,-0.4668,-0.4732,-0.4731,-0.4743,-0.4773,-0.4805,-0.4812,-0.4819,-0.4843,-0.4851,-0.4749,-0.4749,-0.4749,0,-0.432,-0.4373,-0.438,-0.442,-0.4441,-0.4438,-0.4481,-0.4501,-0.4545,-0.456,-0.4548,-0.4627,-0.465,-0.4712,-0.4727,-0.4744,-0.4756,-0.474,-0.481,-0.4817,-0.4823,-0.4846,-0.4855,-0.475,-0.475,-0.475,-0.475,0,-0.44,-0.4437,-0.4467,-0.4506,-0.4531,-0.4572,-0.4586,-0.461,-0.4613,-0.4626,-0.4678,-0.4705,-0.4746,-0.4761,-0.4764,-0.4824,-0.4817,-0.4807,-0.4787,-0.4833,-0.4855,-0.4863,-0.4752,-0.4752,-0.4752,-0.4751,0,0,-0.4471,-0.4512,-0.4523,-0.4541,-0.4575,-0.4605,-0.4645,-0.4684,-0.4705,-0.4734,-0.4769,-0.4822,-0.4813,-0.4836,-0.4842,-0.4871,-0.4921,-0.4858,-0.4859,-0.487,-0.4989,-0.4997,-0.5007,-0.4919,-0.492,-0.4922,-0.4986,0,-0.4532,-0.4603,-0.461,-0.4674,-0.4709,-0.4705,-0.4741,-0.4766,-0.4779,-0.4812,-0.4827,-0.4864,-0.4849,-0.4863,-0.4891,-0.4909,-0.4945,-0.4904,-0.4954,-0.4955,-0.4947,-0.5018,-0.5027,-0.5087,-0.4995,-0.4996,-0.4997,0,-0.4614,-0.4644,-0.4711,-0.4739,-0.4754,-0.4786,-0.4822,-0.4852,-0.4881,-0.4889,-0.4914,-0.4915,-0.4959,-0.4934,-0.4994,-0.4966,-0.4986,-0.4998,-0.5001,-0.5008,-0.4981,-0.5029,-0.5107,-0.5116,-0.5011,-0.501,-0.5009,0,-0.4661,-0.4717,-0.4765,-0.478,-0.4814,-0.4837,-0.4853,-0.488,-0.4902,-0.4933,-0.4948,-0.4984,-0.5004,-0.5033,-0.5045,-0.5026,-0.5105,-0.5081,-0.5114,-0.5113,-0.5132,-0.5131,-0.5216,-0.5142,-0.5142,-0.5142,-0.5142,0,-0.473,-0.4772,-0.4786,-0.4816,-0.4862,-0.4869,-0.4916,-0.493,-0.4954,-0.4987,-0.4986,-0.5017,-0.503,-0.5064,-0.5073,-0.5122,-0.5131,-0.5139,-0.5142,-0.5141,-0.514,-0.5156,-0.5153,-0.5144,-0.5144,-0.5143,-0.5143,0,-0.4791,-0.4802,-0.4854,-0.4881,-0.4889,-0.4922,-0.4946,-0.4975,-0.4987,-0.5029,-0.5039,-0.5058,-0.5098,-0.5111,-0.516,-0.5166,-0.5223,-0.5221,-0.5213,-0.5214,-0.5246,-0.5244,-0.5346,-0.5361,-0.5275,-0.5276,-0.5277,0,-0.4836,-0.4867,-0.4897,-0.4918,-0.4934,-0.4969,-0.4991,-0.4999,-0.5022,-0.5056,-0.5082,-0.512,-0.5152,-0.5215,-0.5234,-0.5271,-0.5271,-0.5304,-0.5277,-0.5274,-0.5273,-0.5272,-0.5275,-0.531,-0.5311,-0.5311,-0.5312,0,-0.4914,-0.4917,-0.4948,-0.4981,-0.5007,-0.5034,-0.5061,-0.5078,-0.509,-0.5117,-0.5156,-0.518,-0.5228,-0.5267,-0.5304,-0.5321,-0.532,-0.532,-0.533,-0.533,-0.5325,-0.5329,-0.5229,-0.5318,-0.5318,-0.5317,-0.5317,-0.5317,-0.4969,-0.4997,-0.5022,-0.5057,-0.5077,-0.5101,-0.5129,-0.5143,-0.5176,-0.5215,-0.5217,-0.526,-0.5287,-0.5337,-0.5356,-0.539,-0.5381,-0.5395,-0.5399,-0.5402,-0.5405,-0.5317,-0.5396,-0.5396,-0.5396,-0.5396,-0.5396,0,-0.5048,-0.5064,-0.5095,-0.5131,-0.5158,-0.5151,-0.5179,-0.5203,-0.524,-0.5265,-0.5295,-0.534,-0.5378,-0.5398,-0.5436,-0.5459,-0.5459,-0.5469,-0.5468,-0.5473,-0.5411,-0.5399,-0.5468,-0.5468,-0.5468,-0.5468,-0.5468,-0.5468,-0.5093,-0.514,-0.5146,-0.5203,-0.5218,-0.5259,-0.5276,-0.5298,-0.5318,-0.5368,-0.5398,-0.541,-0.5434,-0.5473,-0.5506,-0.5512,-0.5526,-0.5537,-0.5542,-0.5484,-0.5477,-0.547,-0.5459,-0.554,-0.554,-0.5601,-0.5602,-0.5602]},{"header":{"parameterUnit":"m.s-1","parameterCategory":1,"la1":30.2991,"la2":30.254,"lo1":-89.0895,"lo2":-89.0444,"dy":0.0017,"dx":0.0017,"nx":28,"ny":28,"refTime":"2025-01-14T03:00:00:Z","depth":0,"parameterNumber":3,"parameterNumberName":"V-component_of_WINDS"},"data":[0,0,0,0,0,0,0,0,0,0,0,0,0,0,0,0,0,0,0,0,0,0,0,0,0,0,0,0,0,0,0,0,0,0,0,0,0,0,0,0,0,0,0,0,0,0,0,0,0,0,0,0,0,0,0,0,0,0,-5.7128,-5.7129,0,-5.7195,-5.7196,-5.7197,-5.7106,-5.7103,-5.71,-5.7097,-5.7163,-5.7168,-5.7173,0,0,0,0,0,0,0,0,0,0,0,0,0,-5.6918,-5.6922,-5.7128,-5.7129,-5.713,-5.7195,-5.7196,-5.7197,-5.7107,-5.7103,-5.7099,-5.7095,-5.7162,-5.7167,-5.7173,0,0,0,0,0,0,0,0,0,0,0,0,0,-5.7,-5.6924,-5.7128,-5.7093,-5.709,-5.7195,-5.7196,-5.7197,-5.7108,-5.7103,-5.7098,-5.7093,-5.716,-5.7167,-5.7174,-5.7316,0,0,-5.7196,-5.7199,0,0,0,0,0,0,0,0,-5.6995,-5.7007,-5.7097,-5.7095,-5.7093,-5.7137,-5.7146,-5.7237,-5.7109,-5.7101,-5.7097,-5.7091,-5.7158,-5.7165,-5.7189,-5.7319,-5.7322,-5.7197,-5.7201,-5.7204,-5.7206,0,0,0,0,0,0,0,-5.6989,-5.7004,-5.7154,-5.7098,-5.7096,-5.7072,-5.7079,-5.7163,-5.7156,-5.7101,-5.7095,-5.7104,-5.7156,-5.7182,-5.719,-5.7323,-5.7196,-5.7203,-5.7207,-5.721,-5.7572,-5.7577,0,0,0,0,0,0,-5.6988,-5.7,-5.7152,-5.7156,-5.7031,-5.708,-5.7087,-5.7128,-5.7155,-5.7154,-5.7108,-5.71,-5.7172,-5.7181,-5.7192,-5.736,-5.7204,-5.7211,-5.7215,-5.7567,-5.7574,-5.7579,0,0,0,0,0,0,-5.6984,-5.7003,-5.715,-5.7077,-5.7093,-5.7089,-5.7136,-5.7132,-5.7157,-5.716,-5.7158,-5.7136,-5.7169,-5.7181,-5.7286,-5.7361,-5.7214,-5.7221,-5.7561,-5.7569,-5.7576,-5.7698,0,0,0,0,0,0,-5.6979,-5.7002,-5.7057,-5.7078,-5.7098,-5.7244,-5.714,-5.7137,-5.717,-5.716,-5.7186,-5.7186,-5.7166,-5.7276,-5.7293,-5.7368,-5.7226,-5.7554,-5.7565,-5.7574,-5.7687,-5.7709,-5.7727,0,0,0,0,0,-5.6971,-5.7088,-5.706,-5.7079,-5.7166,-5.7249,-5.7259,-5.7235,-5.7177,-5.7231,-5.7233,-5.7185,-5.735,-5.7287,-5.7306,-5.7384,-5.7549,-5.7562,-5.7573,-5.7678,-5.7704,-5.7727,0,0,0,0,0,0,-5.7074,-5.709,-5.7059,-5.7186,-5.7217,-5.7233,-5.7301,-5.7264,-5.7311,-5.7299,-5.7266,-5.7273,-5.7385,-5.7394,-5.7324,-5.7523,-5.744,-5.7456,-5.7513,-5.7538,-5.7558,-5.7553,-5.7232,0,0,0,0,0,-5.7112,-5.7178,-5.7188,-5.7299,-5.7316,-5.7306,-5.7341,-5.732,-5.735,-5.7362,-5.7371,-5.7402,-5.746,-5.7499,-5.7553,-5.7687,-5.7691,-5.775,-5.7771,-5.7787,-5.7802,-5.7873,-5.79,-5.7619,-5.7618,-5.7618,0,0,-5.719,-5.7206,-5.725,-5.732,-5.7341,-5.741,-5.7318,-5.7394,-5.7445,-5.7373,-5.7473,-5.7481,-5.7512,-5.7632,-5.7685,-5.7644,-5.788,-5.7802,-5.7816,-5.7821,-5.7888,-5.7915,-5.7939,-5.7627,-5.7625,-5.7624,0,0,-5.7367,-5.7387,-5.7481,-5.7505,-5.7538,-5.7531,-5.7554,-5.7576,-5.7579,-5.7678,-5.7626,-5.7684,-5.7786,-5.781,-5.7836,-5.8022,-5.798,-5.8041,-5.8147,-5.8217,-5.8239,-5.8259,-5.8325,-5.835,-5.8055,-5.8055,-5.8056,0,-5.746,-5.7563,-5.7535,-5.7616,-5.7647,-5.7586,-5.7681,-5.7705,-5.7754,-5.7777,-5.773,-5.7856,-5.7872,-5.7997,-5.8043,-5.8065,-5.809,-5.8038,-5.8238,-5.8258,-5.8275,-5.8339,-5.8364,-5.8063,-5.8062,-5.8061,-5.806,0,-5.7675,-5.7747,-5.7819,-5.7869,-5.7909,-5.7997,-5.7981,-5.8024,-5.7999,-5.7997,-5.8098,-5.8116,-5.8172,-5.82,-5.8176,-5.8322,-5.8295,-5.8244,-5.816,-5.831,-5.8369,-5.8393,-5.8073,-5.807,-5.8068,-5.8067,0,0,-5.792,-5.7954,-5.7981,-5.8003,-5.8035,-5.8089,-5.8173,-5.8229,-5.8267,-5.8303,-5.8372,-5.8459,-5.8412,-5.8442,-5.8419,-5.8481,-5.8627,-5.8422,-5.8422,-5.846,-5.8789,-5.8828,-5.8857,-5.8599,-5.8603,-5.8607,-5.8786,0,-5.8098,-5.8246,-5.8222,-5.8364,-5.843,-5.8372,-5.8445,-5.8473,-5.8472,-5.8527,-5.8525,-5.8588,-5.8521,-5.8538,-5.8596,-5.8597,-5.8693,-5.8584,-5.8663,-5.8666,-5.8658,-5.8887,-5.8929,-5.9098,-5.8809,-5.8813,-5.8816,0,-5.8326,-5.8371,-5.852,-5.8542,-5.8569,-5.8635,-5.8684,-5.8738,-5.8767,-5.8762,-5.8795,-5.8761,-5.8844,-5.8758,-5.8871,-5.8798,-5.8828,-5.8833,-5.8839,-5.8846,-5.8751,-5.8901,-5.9151,-5.9177,-5.8852,-5.8849,-5.8846,0,-5.8491,-5.8589,-5.869,-5.8711,-5.8738,-5.8787,-5.88,-5.8824,-5.8859,-5.8902,-5.8924,-5.8975,-5.9004,-5.9044,-5.9024,-5.8963,-5.9142,-5.9054,-5.9139,-5.914,-5.9181,-5.9179,-5.944,-5.9199,-5.9199,-5.9198,-5.9198,0,-5.8693,-5.8787,-5.8765,-5.8828,-5.893,-5.8902,-5.9004,-5.901,-5.9032,-5.9094,-5.9046,-5.9105,-5.9076,-5.9132,-5.9117,-5.9214,-5.9227,-5.9225,-5.922,-5.923,-5.923,-5.925,-5.9238,-5.9205,-5.9203,-5.9202,-5.9201,0,-5.8896,-5.8885,-5.8992,-5.9009,-5.9016,-5.9091,-5.9105,-5.9163,-5.9158,-5.9237,-5.9254,-5.9247,-5.9311,-5.9295,-5.9365,-5.9355,-5.9477,-5.9456,-5.9468,-5.9463,-5.955,-5.9542,-5.9834,-5.9871,-5.9606,-5.9608,-5.961,0,-5.9026,-5.9096,-5.9122,-5.916,-5.9178,-5.9241,-5.9276,-5.925,-5.9289,-5.9327,-5.9381,-5.9441,-5.9487,-5.9592,-5.9592,-5.9645,-5.9626,-5.9725,-5.9634,-5.9642,-5.9629,-5.9625,-5.9632,-5.9743,-5.9746,-5.9749,-5.9751,0,-5.9258,-5.9249,-5.9303,-5.9356,-5.94,-5.9439,-5.9474,-5.9508,-5.9485,-5.9531,-5.9596,-5.9633,-5.9704,-5.9764,-5.9812,-5.9824,-5.9784,-5.9779,-5.9802,-5.9813,-5.9817,-5.9817,-5.9518,-5.9773,-5.9771,-5.9769,-5.9768,-5.9767,-5.9429,-5.9489,-5.9516,-5.9578,-5.9601,-5.9635,-5.9691,-5.9693,-5.9748,-5.9804,-5.9785,-5.986,-5.9886,-5.9947,-5.9965,-6.0022,-5.9985,-6.0018,-6.0026,-6.0035,-6.0047,-5.9807,-6.0031,-6.003,-6.003,-6.0029,-6.0029,0,-5.9659,-5.9674,-5.9731,-5.9782,-5.983,-5.9788,-5.9824,-5.9867,-5.9934,-5.9962,-6.0009,-6.0084,-6.0141,-6.0146,-6.02,-6.0245,-6.0228,-6.026,-6.0257,-6.0261,-6.0076,-6.0052,-6.0273,-6.0273,-6.0273,-6.0273,-6.0273,-6.0273,-5.9785,-5.9885,-5.9879,-5.999,-6.0003,-6.0077,-6.0101,-6.0131,-6.0154,-6.024,-6.0288,-6.0291,-6.0309,-6.0364,-6.0415,-6.0415,-6.0437,-6.0477,-6.047,-6.0298,-6.0274,-6.025,-6.0227,-6.0482,-6.0482,-6.0649,-6.065,-6.0651]}]]